www.pogodaiklimat.ru

Погода и климат >> Архив погоды >> Россия >> Якутия >> Тегюльтя


ПОГОДА в Тегюльте

  • Прогноз погоды в Тегюльте
  • Монитор погоды в Тегюльте
  • Климат города

АРХИВ ПОГОДЫ в Тегюльте

Время (UTC), дата Ветер
(напр.,м/с)
 
Видим.   Явления Облачность Т
(С)
Тd
(С)
f
(%)
Тe
(С)
Тes
(С)
Комфортность P
(гПа)
Po
(гПа)
Тmin
(С)
Tmax
(С)
R
(мм)
R24
(мм)
S
(см)
03 16.09 СВ 1 50 км 10/0
[Ac trans Cs]
+12.1 +3.3 55 +12 +17 1000.6 980.4
06 16.09 С 3 50 км 10/0
[Ac trans Cs]
+14.3 +2.3 44 +14 +16 1001.5 981.4
09 16.09 С 1 50 км 10/0
[Ac trans Ci fib]
+13.3 +4.6 56 +14 +14 1001.7 981.6
12 16.09 штиль 0 50 км 10/0
[Ac trans Ci fib]
+6.6 +3.8 82 +6 +6 1003.9 983.1 +14.4
15 16.09 штиль 0 50 км 10/0
[Ac trans Ci fib]
+5.9 +1.9 75 +5 +5 1003.9 983.1
18 16.09 штиль 0 50 км 3/0
[Ci fib]
+2.5 -0.5 81 +2 +2 1005.4 984.3
21 16.09 штиль 0 50 км 8/0
[Ac trans Ci fib]
-0.5 -2.6 86 -2 -2 1006.6 995.4
00 17.09 штиль 0 50 км 3/0
[Ci fib]
+6.3 +2.1 74 +6 +8 1006.9 986.1 -0.6
03 17.09 З 4 50 км ясно +13.8 -2.3 33 +13 +16 1006.3 986.1
06 17.09 З 4 50 км ясно +15.9 -2.3 29 +15 +17 1006.2 986.1
09 17.09 ЮЗ 2 50 км ясно +14.8 -5.0 25 +15 +15 1007.8 987.5
12 17.09 штиль 0 50 км ясно +9.7 -1.3 46 +10 +13 1009.2 988.0 +16.1
15 17.09 штиль 0 50 км ясно +2.9 +1.1 88 +2 +2 1000.9 988.5
18 17.09 штиль 0 50 км ясно -3.0 -4.3 91 -4 -4 1010.9 989.2
21 17.09 штиль 0 50 км 4/0
[Ac trans]
-5.8 -6.9 92 -7 -7 1011.9 990.1
00 18.09 ЮЗ 2 50 км 4/0
[Ac trans Ci fib]
+2.9 +0.8 86 -0 +2 1011.5 990.3 -3.1
03 18.09 З 3 50 км 8/0
[Ci fib]
+11.5 -0.6 43 +10 +14 1009.6 989.1
06 18.09 З 3 50 км 6/0
[Ci fib]
+13.4 -1.7 35 +13 +15 1010.8 990.3
09 18.09 З 2 50 км 8/0
[Cc]
+12.6 -0.3 41 +12 +12 1011.0 990.5
12 18.09 штиль 0 50 км 8/0
[Cc]
+4.4 -1.7 65 +4 +4 1011.6 990.6 +13.5
15 18.09 штиль 0 50 км 8/0
[Cc]
-2.8 -6.7 74 -4 -4 1012.3 990.6
18 18.09 штиль 0 50 км 8/0
[Cc]
-4.0 -6.6 82 -5 -5 1013.0 991.3
21 18.09 штиль 0 50 км 3/0
[Ci fib]
-7.2 -8.9 88 -8 -8 1013.5 991.5
00 19.09 штиль 0 50 км 10/0
[As trans]
-2.2 -4.4 85 -3 -2 1013.2 991.7 -7.3
03 19.09 Ю 1 50 км 10/0
[Ac trans Ci fib]
+7.1 -0.4 59 +7 +10 1012.6 991.7
06 19.09 С 4 50 км 10/3 600 м
[Sc Ac trans Ci fib]
+9.9 -0.4 49 +8 +8 1012.0 991.4
09 19.09 З 3 50 км 9/0
[Ac trans]
+8.4 +2.1 65 +6 +6 1012.1 991.4
12 19.09 З 3 50 км 9/0
[Ac trans]
+6.7 0.0 62 +4 +4 1014.2 993.2 +10.0
15 19.09 З 2 50 км 10/0
[As op]
+5.5 +0.6 71 +3 +3 1014.2 993.2
18 19.09 штиль 0 50 км 10/0
[As trans]
+4.5 +0.6 76 +4 +4 1015.5 994.3
21 19.09 штиль 0 50 км 10/0
[As trans]
-1.4 -3.1 88 -3 -3 1017.2 995.6
00 20.09 ЮЗ 3 50 км 4/0
[As trans]
+3.1 -1.7 71 -1 +1 1017.2 995.9 -1.5
03 20.09 ЮЗ 2 50 км 8/0
[Cc]
+8.8 -1.3 49 +8 +12 1016.7 995.9
06 20.09 СЗ 4 50 км 6/4 1000 м
[Cu hum Cc]
+11.5 -3.6 35 +10 +11 1015.7 995.1
09 20.09 С 2 50 км 4/3 1000 м
[Cu hum Ac trans]
+11.1 -3.5 36 +10 +10 1016.4 995.7
12 20.09 штиль 0 50 км 8/0
[Ac trans]
+2.8 -2.4 69 +2 +2 1017.9 996.6 +11.8
15 20.09 штиль 0 50 км 8/0
[Ac trans]
-2.2 -4.1 87 -3 -3 1019.8 998.1
18 20.09 штиль 0 50 км 8/0
[Ac trans]
-5.0 -6.7 88 -6 -6 1020.4 998.3
21 20.09 штиль 0 50 км 3/0
[Ac trans]
-5.6 -7.0 90 -7 -7 1021.8 999.7
00 21.09 ЮЗ 1 50 км 3/0
[Ac trans]
+1.7 -1.1 82 0 +2 1021.6 1000.2 -5.7
03 21.09 Ю 1 50 км 8/0
[Ci fib]
+12.0 +6.1 67 +12 +17 1020.9 1000.2
06 21.09 З 4 50 км 6/6 1000 м
[Cu med, cong]
+13.9 +1.1 42 +13 +14 1019.8 999.3
09 21.09 З 2 50 км 8/8 1000 м
[Sc]
+13.3 -2.0 35 +13 +13 1019.4 998.7
12 21.09 штиль 0 50 км 3/0 1000 м
[]
+0.8 -3.8 71 0 0 1022.1 1000.5 +14.8
15 21.09 штиль 0 50 км 4/0
[Ac trans]
-3.5 -4.8 91 -5 -5 1023.4 1001.5
18 21.09 штиль 0 50 км ясно -5.9 -7.0 92 -7 -7 1024.7 1002.5
21 21.09 штиль 0 50 км ясно -8.2 -9.0 94 -9 -9 1025.7 1003.4
00 22.09 штиль 0 50 км 3/0
[Ci fib]
0.0 -2.3 84 -1 +1 1025.7 1004.0 -8.7
03 22.09 ЮЗ 4 50 км 8/0
[Ac trans]
+11.0 -1.1 43 +9 +11 1024.1 1003.2
06 22.09 З 4 50 км 9/0
[Ac trans]
+11.4 -3.8 34 +10 +11 1022.7 1001.9
09 22.09 Ю 2 50 км 6/0
[Ac trans Ci fib]
+10.7 -3.0 38 +10 +10 1020.9 1000.1
12 22.09 штиль 0 50 км 3/0
[Ac trans]
+1.0 -2.5 77 0 0 1022.1 1000.5 +11.5
15 22.09 штиль 0 50 км 10/0
[Ci fib]
-3.8 -5.0 91 -5 -5 1021.1 999.2
18 22.09 штиль 0 50 км 10/0
[Cs]
-1.4 -3.4 86 -3 -3 1019.4 997.7
21 22.09 штиль 0 50 км 10/0
[Ac As]
+0.6 -1.7 85 -1 -1 1017.8 996.3

 

Местоположение метеостанции Тегюльтя (Якутия, Россия): широта 60.47 долгота 130.00 высота над уровнем моря 171 м.

В архиве по умолчанию представлена погода в Тегюльте за последнюю неделю. Архивные данные за месяц целиком и за предыдущие месяцы, начиная с января 2011 года, Вы можете получить, выбрав интересующий диапазон дат из раскрывающегося списка и нажав кнопку "Ввод!".


*Определитесь, кто Вы:
робот инопланетянин человек

Внимание! Время в таблицах - всемирное. Для получения местного времени необходимо прибавить поправку, которая в Тегюльте равна 9 ч.

Смотрите также архив погоды в соседних городах и на ближайших метеорологических станциях:

Погода в Амге (Якутия, Россия) (114 км)
Погода в Покровске (Якутия, Россия) (122 км)
Погода в Якутске (Якутия, Россия) (172 км)
Погода в Буяге (Якутия, Россия) (189 км)
Погода в Усть-Миле (Якутия, Россия) (191 км)
Погода в Учуре (Якутия, Россия) (196 км)
Погода в Угино (Якутия, Россия) (221 км)
Погода в Чурапче (Якутия, Россия) (222 км)
Погода в Усть-Мае (Якутия, Россия) (242 км)
Погода в Намцах (Якутия, Россия) (251 км)

Пояснения к столбцам:

Ветер - указаны скорость ветра в м/с - средняя за 10 мин, порывы в срок и между сроками (в фигурных скобках) и направление, откуда дует ветер: С - северный, СВ - северо-восточный, В - восточный, ЮВ - юго-восточный, Ю - южный, ЮЗ - юго-западный, З - западный, СЗ - северо-западный.
Видимость - горизонтальная дальность видимости в метрах или километрах. При видимости от 1 до 10 км при отсутствии осадков обычно наблюдается дымка, при ухудшении видимости до 1 км и менее - туман. В сухую погоду видимость может ухудшаться дымом, пылью или мглою.
Явления - указаны атмосферные явления, наблюдавшиеся в срок или в последний час перед сроком; фигурными скобками обозначены явления, наблюдавшиеся между сроками (за 1-3 часа до срока); квадратными скобками обозначены град или гололедные отложения с указанием их диаметра в мм.
Облачность - указаны через наклонную черту общая и нижняя облачность в баллах и высота нижней границы облаков в метрах; квадратными скобками обозначены формы облаков: Ci - перистые, Cs - перисто-слоистые, Cc - перисто-кучевые, Ac - высококучевые, As - высокослоистые, Sc - слоисто-кучевые, Ns - слоисто-дождевые, Cu - кучевые, Cb - кучево-дождевые. Подробнее классификацию облаков см. в Атласе облаков (PDF).
T - Температура воздуха - температура, измеренная на высоте 2 м над землей.
Td - Температура точки росы - температура, при понижении до которой содержащийся в воздухе водяной пар достигнет насыщения.
f - Относительная влажность воздуха - влажноcть воздуха, измеренная на высоте 2 м над землей.
Te - Эффективная температура - температура, которую ощущает одетый по сезону человек в тени. Характеристика душности погоды. При расчете учитывается влияние влажности воздуха и скорости ветра на теплоощущения человека.
Tes - Эффективная температура на солнце - температура, которую ощущает человек, с поправкой на солнечный нагрев. Характеристика знойности погоды. Зависит от высоты солнца над горизонтом, облачности и скорости ветра. Ночью, в пасмурную погоду, а также при ветре 12 м/с и более поправка равна нулю.
P - Атмосферное давление - приведенное к уровню моря атмосферное давление.
Po - Атмосферное давление - измеренное на уровне метеостанции атмосферное давление.
Tmin - Минимальная температура - минимум температуры воздуха на высоте 2 м над землей.
Tmax - Максимальная температура - максимум температуры воздуха на высоте 2 м над землей.
R - Количество осадков - Количество выпавших осадков за период времени, мм. При наведении курсора мыши на число - период времени, за который выпало указанное количество осадков.
R24 - Количество осадков - Количество выпавших осадков за 24 часа, мм.
S - Снежный покров - Высота снежного покрова, см. При наведении курсора мыши на число - состояние снежного покрова и степень покрытия местности в баллах.